sat.trackr.live / text

‹ back to catalog

STARLINK-36198

NORAD 67167 · 2025-303E

PAYLOAD ACTIVE UNKNOWN

§ Identity

Operator
Country
US
Launch date
2025-12-17
Launch site
AFETR
Launch vehicle
Mass (kg)
RCS (m²)

Purposes: comms

External: N2YO · Heavens-Above · Gunter

§ Orbital elements

Epoch: 2026-09-19T09:11:09.073824Z

Period
94.27 min
Inclination
43.0007°
Eccentricity
0.0001132
Mean motion
15.27576478 rev/d
Perigee alt
482.3 km
Apogee alt
483.8 km
Semi-major
6,861.2 km
B*
3.4499e-4
RAAN
297.2176°
Arg perigee
254.5351°
Mean anomaly
105.5376°
Rev number
4,235

§ Raw data

STARLINK-361981 67167U 25303E   26262.38274391  .00009242  00000+0  34499-3 0  99932 67167  43.0007 297.2176 0001132 254.5351 105.5376 15.27576478 42352

JSON: /api/v1/satellites/67167 · /tle

For live sub-satellite position, see the globe view (requires WebGL).

§ Visibility from observer

Set your observer location to see the next 7 days of passes ≥ 10°. The values pass through the URL so the page stays shareable.

No JS? Fill the form by hand. The geolocation button needs JavaScript.